owner,sensor,date,latitude,longitude,vertical_datum,sea_water_temperature,qcFlag 
WAVCIS,ioos:station:WAVCIS:CSI03:1,2009-10-01T00:00:00Z,29.4412,-92.0613,10.0,26.66,11111222 
WAVCIS,ioos:station:WAVCIS:CSI03:1,2009-10-01T01:00:00Z,29.4412,-92.0613,10.0,26.52,11111222 
WAVCIS,ioos:station:WAVCIS:CSI03:1,2009-10-01T02:00:00Z,29.4412,-92.0613,10.0,26.56,11111222 
WAVCIS,ioos:station:WAVCIS:CSI03:1,2009-10-01T03:00:00Z,29.4412,-92.0613,10.0,26.52,11111222 
WAVCIS,ioos:station:WAVCIS:CSI03:1,2009-10-01T04:00:00Z,29.4412,-92.0613,10.0,26.58,11111222 
WAVCIS,ioos:station:WAVCIS:CSI03:1,2009-10-01T05:00:00Z,29.4412,-92.0613,10.0,26.22,11111222 
WAVCIS,ioos:station:WAVCIS:CSI03:1,2009-10-01T06:00:00Z,29.4412,-92.0613,10.0,26.42,11111222 
WAVCIS,ioos:station:WAVCIS:CSI03:1,2009-10-01T07:00:00Z,29.4412,-92.0613,10.0,26.64,11111222 
WAVCIS,ioos:station:WAVCIS:CSI03:1,2009-10-01T08:00:00Z,29.4412,-92.0613,10.0,26.83,11111222 
WAVCIS,ioos:station:WAVCIS:CSI03:1,2009-10-01T09:00:00Z,29.4412,-92.0613,10.0,26.82,11111222 
WAVCIS,ioos:station:WAVCIS:CSI03:1,2009-10-01T10:00:00Z,29.4412,-92.0613,10.0,26.86,11111222 
WAVCIS,ioos:station:WAVCIS:CSI03:1,2009-10-01T11:00:00Z,29.4412,-92.0613,10.0,26.8,11111222 
WAVCIS,ioos:station:WAVCIS:CSI03:1,2009-10-01T12:00:00Z,29.4412,-92.0613,10.0,26.73,11111222 
WAVCIS,ioos:station:WAVCIS:CSI03:1,2009-10-01T13:00:00Z,29.4412,-92.0613,10.0,26.7,11111222 
WAVCIS,ioos:station:WAVCIS:CSI03:1,2009-10-01T14:00:00Z,29.4412,-92.0613,10.0,26.67,11111222 
WAVCIS,ioos:station:WAVCIS:CSI03:1,2009-10-01T15:00:00Z,29.4412,-92.0613,10.0,26.76,11111222 
WAVCIS,ioos:station:WAVCIS:CSI03:1,2009-10-01T16:00:00Z,29.4412,-92.0613,10.0,26.82,11111222 
WAVCIS,ioos:station:WAVCIS:CSI03:1,2009-10-01T17:00:00Z,29.4412,-92.0613,10.0,26.98,11111222 
WAVCIS,ioos:station:WAVCIS:CSI03:1,2009-10-01T18:00:00Z,29.4412,-92.0613,10.0,27.11,11111222 
WAVCIS,ioos:station:WAVCIS:CSI03:1,2009-10-01T19:00:00Z,29.4412,-92.0613,10.0,27.27,11111222 
WAVCIS,ioos:station:WAVCIS:CSI03:1,2009-10-01T20:00:00Z,29.4412,-92.0613,10.0,27.32,11111222 
WAVCIS,ioos:station:WAVCIS:CSI03:1,2009-10-01T21:00:00Z,29.4412,-92.0613,10.0,27.24,11111222 
WAVCIS,ioos:station:WAVCIS:CSI03:1,2009-10-01T22:00:00Z,29.4412,-92.0613,10.0,27.56,11111222 
WAVCIS,ioos:station:WAVCIS:CSI03:1,2009-10-01T23:00:00Z,29.4412,-92.0613,10.0,27.45,11111222 
WAVCIS,ioos:station:WAVCIS:CSI03:1,2009-10-02T00:00:00Z,29.4412,-92.0613,10.0,27.33,11111222 
WAVCIS,ioos:station:WAVCIS:CSI03:1,2009-10-02T01:00:00Z,29.4412,-92.0613,10.0,25.71,11111222 
WAVCIS,ioos:station:WAVCIS:CSI03:1,2009-10-02T02:00:00Z,29.4412,-92.0613,10.0,26.27,11111222 
WAVCIS,ioos:station:WAVCIS:CSI03:1,2009-10-02T03:00:00Z,29.4412,-92.0613,10.0,26.57,11111222 
WAVCIS,ioos:station:WAVCIS:CSI03:1,2009-10-02T04:00:00Z,29.4412,-92.0613,10.0,26.78,11111222 
WAVCIS,ioos:station:WAVCIS:CSI03:1,2009-10-02T05:00:00Z,29.4412,-92.0613,10.0,26.91,11111222 
WAVCIS,ioos:station:WAVCIS:CSI03:1,2009-10-02T06:00:00Z,29.4412,-92.0613,10.0,26.93,11111222 
WAVCIS,ioos:station:WAVCIS:CSI03:1,2009-10-02T07:00:00Z,29.4412,-92.0613,10.0,26.64,11111222 
WAVCIS,ioos:station:WAVCIS:CSI03:1,2009-10-02T08:00:00Z,29.4412,-92.0613,10.0,26.85,11111222 
WAVCIS,ioos:station:WAVCIS:CSI03:1,2009-10-02T09:00:00Z,29.4412,-92.0613,10.0,26.96,11111222 
WAVCIS,ioos:station:WAVCIS:CSI03:1,2009-10-02T10:00:00Z,29.4412,-92.0613,10.0,26.87,11111222 
WAVCIS,ioos:station:WAVCIS:CSI03:1,2009-10-02T11:00:00Z,29.4412,-92.0613,10.0,26.88,11111222 
WAVCIS,ioos:station:WAVCIS:CSI03:1,2009-10-02T12:00:00Z,29.4412,-92.0613,10.0,26.78,11111222 
WAVCIS,ioos:station:WAVCIS:CSI03:1,2009-10-02T13:00:00Z,29.4412,-92.0613,10.0,26.69,11111222 
WAVCIS,ioos:station:WAVCIS:CSI03:1,2009-10-02T14:00:00Z,29.4412,-92.0613,10.0,26.64,11111222 
WAVCIS,ioos:station:WAVCIS:CSI03:1,2009-10-02T15:00:00Z,29.4412,-92.0613,10.0,26.64,11111222 
WAVCIS,ioos:station:WAVCIS:CSI03:1,2009-10-02T16:00:00Z,29.4412,-92.0613,10.0,26.65,11111222 
WAVCIS,ioos:station:WAVCIS:CSI03:1,2009-10-02T17:00:00Z,29.4412,-92.0613,10.0,26.71,11111222 
WAVCIS,ioos:station:WAVCIS:CSI03:1,2009-10-02T18:00:00Z,29.4412,-92.0613,10.0,27.04,11111222 
WAVCIS,ioos:station:WAVCIS:CSI03:1,2009-10-02T19:00:00Z,29.4412,-92.0613,10.0,27.02,11111222 
WAVCIS,ioos:station:WAVCIS:CSI03:1,2009-10-02T20:00:00Z,29.4412,-92.0613,10.0,27.21,11111222 
WAVCIS,ioos:station:WAVCIS:CSI03:1,2009-10-02T21:00:00Z,29.4412,-92.0613,10.0,27.73,11111222 
WAVCIS,ioos:station:WAVCIS:CSI03:1,2009-10-02T22:00:00Z,29.4412,-92.0613,10.0,27.21,11111222 
WAVCIS,ioos:station:WAVCIS:CSI03:1,2009-10-02T23:00:00Z,29.4412,-92.0613,10.0,27.38,11111222 
WAVCIS,ioos:station:WAVCIS:CSI03:1,2009-10-03T00:00:00Z,29.4412,-92.0613,10.0,27.24,11111222 
WAVCIS,ioos:station:WAVCIS:CSI03:1,2009-10-03T01:00:00Z,29.4412,-92.0613,10.0,27.34,11111222 
WAVCIS,ioos:station:WAVCIS:CSI03:1,2009-10-03T02:00:00Z,29.4412,-92.0613,10.0,27.33,11111222 
WAVCIS,ioos:station:WAVCIS:CSI03:1,2009-10-03T03:00:00Z,29.4412,-92.0613,10.0,27.33,11111222 
WAVCIS,ioos:station:WAVCIS:CSI03:1,2009-10-03T04:00:00Z,29.4412,-92.0613,10.0,27.19,11111222 
WAVCIS,ioos:station:WAVCIS:CSI03:1,2009-10-03T05:00:00Z,29.4412,-92.0613,10.0,27.12,11111222 
WAVCIS,ioos:station:WAVCIS:CSI03:1,2009-10-03T06:00:00Z,29.4412,-92.0613,10.0,27.05,11111222 
WAVCIS,ioos:station:WAVCIS:CSI03:1,2009-10-03T07:00:00Z,29.4412,-92.0613,10.0,26.96,11111222 
WAVCIS,ioos:station:WAVCIS:CSI03:1,2009-10-03T08:00:00Z,29.4412,-92.0613,10.0,26.98,11111222 
WAVCIS,ioos:station:WAVCIS:CSI03:1,2009-10-03T09:00:00Z,29.4412,-92.0613,10.0,26.97,11111222 
WAVCIS,ioos:station:WAVCIS:CSI03:1,2009-10-03T10:00:00Z,29.4412,-92.0613,10.0,26.78,11111222 
WAVCIS,ioos:station:WAVCIS:CSI03:1,2009-10-03T11:00:00Z,29.4412,-92.0613,10.0,26.71,11111222 
WAVCIS,ioos:station:WAVCIS:CSI03:1,2009-10-03T12:00:00Z,29.4412,-92.0613,10.0,26.71,11111222 
WAVCIS,ioos:station:WAVCIS:CSI03:1,2009-10-03T13:00:00Z,29.4412,-92.0613,10.0,26.75,11111222 
WAVCIS,ioos:station:WAVCIS:CSI03:1,2009-10-03T14:00:00Z,29.4412,-92.0613,10.0,26.66,11111222 
WAVCIS,ioos:station:WAVCIS:CSI03:1,2009-10-03T15:00:00Z,29.4412,-92.0613,10.0,26.75,11111222 
WAVCIS,ioos:station:WAVCIS:CSI03:1,2009-10-03T16:00:00Z,29.4412,-92.0613,10.0,26.83,11111222 
WAVCIS,ioos:station:WAVCIS:CSI03:1,2009-10-03T17:00:00Z,29.4412,-92.0613,10.0,27.04,11111222 
WAVCIS,ioos:station:WAVCIS:CSI03:1,2009-10-03T18:00:00Z,29.4412,-92.0613,10.0,27.11,11111222 
WAVCIS,ioos:station:WAVCIS:CSI03:1,2009-10-03T19:00:00Z,29.4412,-92.0613,10.0,27.1,11111222 
WAVCIS,ioos:station:WAVCIS:CSI03:1,2009-10-03T20:00:00Z,29.4412,-92.0613,10.0,27.31,11111222 
WAVCIS,ioos:station:WAVCIS:CSI03:1,2009-10-03T21:00:00Z,29.4412,-92.0613,10.0,27.27,11111222 
WAVCIS,ioos:station:WAVCIS:CSI03:1,2009-10-03T22:00:00Z,29.4412,-92.0613,10.0,27.22,11111222 
WAVCIS,ioos:station:WAVCIS:CSI03:1,2009-10-03T23:00:00Z,29.4412,-92.0613,10.0,27.16,11111222 
WAVCIS,ioos:station:WAVCIS:CSI03:1,2009-10-04T00:00:00Z,29.4412,-92.0613,10.0,27.08,11111222 
WAVCIS,ioos:station:WAVCIS:CSI03:1,2009-10-04T01:00:00Z,29.4412,-92.0613,10.0,27.02,11111222 
WAVCIS,ioos:station:WAVCIS:CSI03:1,2009-10-04T02:00:00Z,29.4412,-92.0613,10.0,26.99,11111222 
WAVCIS,ioos:station:WAVCIS:CSI03:1,2009-10-04T03:00:00Z,29.4412,-92.0613,10.0,26.98,11111222 
WAVCIS,ioos:station:WAVCIS:CSI03:1,2009-10-04T04:00:00Z,29.4412,-92.0613,10.0,26.98,11111222 
WAVCIS,ioos:station:WAVCIS:CSI03:1,2009-10-04T05:00:00Z,29.4412,-92.0613,10.0,27.0,11111222 
WAVCIS,ioos:station:WAVCIS:CSI03:1,2009-10-04T06:00:00Z,29.4412,-92.0613,10.0,27.08,11111222 
WAVCIS,ioos:station:WAVCIS:CSI03:1,2009-10-04T07:00:00Z,29.4412,-92.0613,10.0,27.05,11111222 
WAVCIS,ioos:station:WAVCIS:CSI03:1,2009-10-04T08:00:00Z,29.4412,-92.0613,10.0,27.04,11111222 
WAVCIS,ioos:station:WAVCIS:CSI03:1,2009-10-04T09:00:00Z,29.4412,-92.0613,10.0,27.0,11111222 
WAVCIS,ioos:station:WAVCIS:CSI03:1,2009-10-04T10:00:00Z,29.4412,-92.0613,10.0,26.95,11111222 
WAVCIS,ioos:station:WAVCIS:CSI03:1,2009-10-04T11:00:00Z,29.4412,-92.0613,10.0,26.88,11111222 
WAVCIS,ioos:station:WAVCIS:CSI03:1,2009-10-04T12:00:00Z,29.4412,-92.0613,10.0,26.86,11111222 
WAVCIS,ioos:station:WAVCIS:CSI03:1,2009-10-04T13:00:00Z,29.4412,-92.0613,10.0,26.91,11111222 
WAVCIS,ioos:station:WAVCIS:CSI03:1,2009-10-04T14:00:00Z,29.4412,-92.0613,10.0,26.96,11111222 
WAVCIS,ioos:station:WAVCIS:CSI03:1,2009-10-04T15:00:00Z,29.4412,-92.0613,10.0,27.09,11111222 
WAVCIS,ioos:station:WAVCIS:CSI03:1,2009-10-04T16:00:00Z,29.4412,-92.0613,10.0,27.01,11111222 
WAVCIS,ioos:station:WAVCIS:CSI03:1,2009-10-04T17:00:00Z,29.4412,-92.0613,10.0,26.95,11111222 
WAVCIS,ioos:station:WAVCIS:CSI03:1,2009-10-04T18:00:00Z,29.4412,-92.0613,10.0,26.92,11111222 
WAVCIS,ioos:station:WAVCIS:CSI03:1,2009-10-04T19:00:00Z,29.4412,-92.0613,10.0,26.96,11111222 
WAVCIS,ioos:station:WAVCIS:CSI03:1,2009-10-04T20:00:00Z,29.4412,-92.0613,10.0,27.08,11111222 
WAVCIS,ioos:station:WAVCIS:CSI03:1,2009-10-04T21:00:00Z,29.4412,-92.0613,10.0,27.18,11111222 
WAVCIS,ioos:station:WAVCIS:CSI03:1,2009-10-04T22:00:00Z,29.4412,-92.0613,10.0,27.23,11111222 
WAVCIS,ioos:station:WAVCIS:CSI03:1,2009-10-04T23:00:00Z,29.4412,-92.0613,10.0,27.24,11111222 
WAVCIS,ioos:station:WAVCIS:CSI03:1,2009-10-05T00:00:00Z,29.4412,-92.0613,10.0,27.22,11111222 
WAVCIS,ioos:station:WAVCIS:CSI03:1,2009-10-05T01:00:00Z,29.4412,-92.0613,10.0,27.22,11111222 
WAVCIS,ioos:station:WAVCIS:CSI03:1,2009-10-05T02:00:00Z,29.4412,-92.0613,10.0,27.17,11111222 
WAVCIS,ioos:station:WAVCIS:CSI03:1,2009-10-05T03:00:00Z,29.4412,-92.0613,10.0,27.13,11111222 
WAVCIS,ioos:station:WAVCIS:CSI03:1,2009-10-05T04:00:00Z,29.4412,-92.0613,10.0,27.16,11111222 
WAVCIS,ioos:station:WAVCIS:CSI03:1,2009-10-05T05:00:00Z,29.4412,-92.0613,10.0,27.06,11111222 
WAVCIS,ioos:station:WAVCIS:CSI03:1,2009-10-05T06:00:00Z,29.4412,-92.0613,10.0,27.14,11111222 
WAVCIS,ioos:station:WAVCIS:CSI03:1,2009-10-05T07:00:00Z,29.4412,-92.0613,10.0,27.16,11111222 
WAVCIS,ioos:station:WAVCIS:CSI03:1,2009-10-05T08:00:00Z,29.4412,-92.0613,10.0,27.19,11111222 
WAVCIS,ioos:station:WAVCIS:CSI03:1,2009-10-05T09:00:00Z,29.4412,-92.0613,10.0,27.21,11111222 
WAVCIS,ioos:station:WAVCIS:CSI03:1,2009-10-05T10:00:00Z,29.4412,-92.0613,10.0,27.19,11111222 
WAVCIS,ioos:station:WAVCIS:CSI03:1,2009-10-05T11:00:00Z,29.4412,-92.0613,10.0,27.23,11111222 
WAVCIS,ioos:station:WAVCIS:CSI03:1,2009-10-05T12:00:00Z,29.4412,-92.0613,10.0,27.19,11111222 
WAVCIS,ioos:station:WAVCIS:CSI03:1,2009-10-05T13:00:00Z,29.4412,-92.0613,10.0,27.12,11111222 
WAVCIS,ioos:station:WAVCIS:CSI03:1,2009-10-05T14:00:00Z,29.4412,-92.0613,10.0,26.98,11111222 
WAVCIS,ioos:station:WAVCIS:CSI03:1,2009-10-05T15:00:00Z,29.4412,-92.0613,10.0,27.02,11111222 
WAVCIS,ioos:station:WAVCIS:CSI03:1,2009-10-05T16:00:00Z,29.4412,-92.0613,10.0,27.01,11111222 
WAVCIS,ioos:station:WAVCIS:CSI03:1,2009-10-05T17:00:00Z,29.4412,-92.0613,10.0,27.03,11111222 
WAVCIS,ioos:station:WAVCIS:CSI03:1,2009-10-05T18:00:00Z,29.4412,-92.0613,10.0,27.03,11111222 
WAVCIS,ioos:station:WAVCIS:CSI03:1,2009-10-05T19:00:00Z,29.4412,-92.0613,10.0,27.18,11111222 
WAVCIS,ioos:station:WAVCIS:CSI03:1,2009-10-05T20:00:00Z,29.4412,-92.0613,10.0,27.24,11111222 
WAVCIS,ioos:station:WAVCIS:CSI03:1,2009-10-05T21:00:00Z,29.4412,-92.0613,10.0,27.24,11111222 
WAVCIS,ioos:station:WAVCIS:CSI03:1,2009-10-05T22:00:00Z,29.4412,-92.0613,10.0,27.27,11111222 
WAVCIS,ioos:station:WAVCIS:CSI03:1,2009-10-05T23:00:00Z,29.4412,-92.0613,10.0,27.29,11111222 
WAVCIS,ioos:station:WAVCIS:CSI03:1,2009-10-06T00:00:00Z,29.4412,-92.0613,10.0,27.35,11111222 
WAVCIS,ioos:station:WAVCIS:CSI03:1,2009-10-06T01:00:00Z,29.4412,-92.0613,10.0,27.36,11111222 
WAVCIS,ioos:station:WAVCIS:CSI03:1,2009-10-06T02:00:00Z,29.4412,-92.0613,10.0,27.33,11111222 
WAVCIS,ioos:station:WAVCIS:CSI03:1,2009-10-06T03:00:00Z,29.4412,-92.0613,10.0,27.3,11111222 
WAVCIS,ioos:station:WAVCIS:CSI03:1,2009-10-06T04:00:00Z,29.4412,-92.0613,10.0,27.32,11111222 
WAVCIS,ioos:station:WAVCIS:CSI03:1,2009-10-06T05:00:00Z,29.4412,-92.0613,10.0,27.29,11111222 
WAVCIS,ioos:station:WAVCIS:CSI03:1,2009-10-06T06:00:00Z,29.4412,-92.0613,10.0,27.3,11111222 
WAVCIS,ioos:station:WAVCIS:CSI03:1,2009-10-06T07:00:00Z,29.4412,-92.0613,10.0,27.3,11111222 
WAVCIS,ioos:station:WAVCIS:CSI03:1,2009-10-06T08:00:00Z,29.4412,-92.0613,10.0,27.29,11111222 
WAVCIS,ioos:station:WAVCIS:CSI03:1,2009-10-06T09:00:00Z,29.4412,-92.0613,10.0,27.3,11111222 
WAVCIS,ioos:station:WAVCIS:CSI03:1,2009-10-06T10:00:00Z,29.4412,-92.0613,10.0,27.26,11111222 
WAVCIS,ioos:station:WAVCIS:CSI03:1,2009-10-06T11:00:00Z,29.4412,-92.0613,10.0,27.26,11111222 
WAVCIS,ioos:station:WAVCIS:CSI03:1,2009-10-06T12:00:00Z,29.4412,-92.0613,10.0,27.28,11111222 
WAVCIS,ioos:station:WAVCIS:CSI03:1,2009-10-06T13:00:00Z,29.4412,-92.0613,10.0,27.21,11111222 
WAVCIS,ioos:station:WAVCIS:CSI03:1,2009-10-06T14:00:00Z,29.4412,-92.0613,10.0,27.21,11111222 
WAVCIS,ioos:station:WAVCIS:CSI03:1,2009-10-06T15:00:00Z,29.4412,-92.0613,10.0,27.2,11111222 
WAVCIS,ioos:station:WAVCIS:CSI03:1,2009-10-06T16:00:00Z,29.4412,-92.0613,10.0,27.19,11111222 
WAVCIS,ioos:station:WAVCIS:CSI03:1,2009-10-06T17:00:00Z,29.4412,-92.0613,10.0,27.23,11111222 
WAVCIS,ioos:station:WAVCIS:CSI03:1,2009-10-06T18:00:00Z,29.4412,-92.0613,10.0,27.22,11111222 
WAVCIS,ioos:station:WAVCIS:CSI03:1,2009-10-06T19:00:00Z,29.4412,-92.0613,10.0,27.27,11111222 
WAVCIS,ioos:station:WAVCIS:CSI03:1,2009-10-06T20:00:00Z,29.4412,-92.0613,10.0,27.3,11111222 
WAVCIS,ioos:station:WAVCIS:CSI03:1,2009-10-06T21:00:00Z,29.4412,-92.0613,10.0,27.22,11111222 
WAVCIS,ioos:station:WAVCIS:CSI03:1,2009-10-06T22:00:00Z,29.4412,-92.0613,10.0,27.22,11111222 
WAVCIS,ioos:station:WAVCIS:CSI03:1,2009-10-06T23:00:00Z,29.4412,-92.0613,10.0,27.23,11111222 
WAVCIS,ioos:station:WAVCIS:CSI03:1,2009-10-07T00:00:00Z,29.4412,-92.0613,10.0,27.22,11111222 
WAVCIS,ioos:station:WAVCIS:CSI03:1,2009-10-07T01:00:00Z,29.4412,-92.0613,10.0,27.22,11111222 
WAVCIS,ioos:station:WAVCIS:CSI03:1,2009-10-07T02:00:00Z,29.4412,-92.0613,10.0,27.23,11111222 
WAVCIS,ioos:station:WAVCIS:CSI03:1,2009-10-07T03:00:00Z,29.4412,-92.0613,10.0,27.24,11111222 
WAVCIS,ioos:station:WAVCIS:CSI03:1,2009-10-07T04:00:00Z,29.4412,-92.0613,10.0,27.31,11111222 
WAVCIS,ioos:station:WAVCIS:CSI03:1,2009-10-07T05:00:00Z,29.4412,-92.0613,10.0,27.32,11111222 
WAVCIS,ioos:station:WAVCIS:CSI03:1,2009-10-07T06:00:00Z,29.4412,-92.0613,10.0,27.33,11111222 
WAVCIS,ioos:station:WAVCIS:CSI03:1,2009-10-07T07:00:00Z,29.4412,-92.0613,10.0,27.29,11111222 
WAVCIS,ioos:station:WAVCIS:CSI03:1,2009-10-07T08:00:00Z,29.4412,-92.0613,10.0,27.27,11111222 
WAVCIS,ioos:station:WAVCIS:CSI03:1,2009-10-07T09:00:00Z,29.4412,-92.0613,10.0,27.4,11111222 
WAVCIS,ioos:station:WAVCIS:CSI03:1,2009-10-07T10:00:00Z,29.4412,-92.0613,10.0,27.52,11111222 
WAVCIS,ioos:station:WAVCIS:CSI03:1,2009-10-07T11:00:00Z,29.4412,-92.0613,10.0,27.64,11111222 
WAVCIS,ioos:station:WAVCIS:CSI03:1,2009-10-07T12:00:00Z,29.4412,-92.0613,10.0,27.7,11111222 
WAVCIS,ioos:station:WAVCIS:CSI03:1,2009-10-07T13:00:00Z,29.4412,-92.0613,10.0,27.74,11111222 
WAVCIS,ioos:station:WAVCIS:CSI03:1,2009-10-07T14:00:00Z,29.4412,-92.0613,10.0,27.77,11111222 
WAVCIS,ioos:station:WAVCIS:CSI03:1,2009-10-07T15:00:00Z,29.4412,-92.0613,10.0,27.91,11111222 
WAVCIS,ioos:station:WAVCIS:CSI03:1,2009-10-07T16:00:00Z,29.4412,-92.0613,10.0,28.09,11111222 
WAVCIS,ioos:station:WAVCIS:CSI03:1,2009-10-07T17:00:00Z,29.4412,-92.0613,10.0,28.23,11111222 
WAVCIS,ioos:station:WAVCIS:CSI03:1,2009-10-07T18:00:00Z,29.4412,-92.0613,10.0,28.64,11111222 
WAVCIS,ioos:station:WAVCIS:CSI03:1,2009-10-07T19:00:00Z,29.4412,-92.0613,10.0,28.24,11111222 
WAVCIS,ioos:station:WAVCIS:CSI03:1,2009-10-07T20:00:00Z,29.4412,-92.0613,10.0,27.63,11111222 
WAVCIS,ioos:station:WAVCIS:CSI03:1,2009-10-07T21:00:00Z,29.4412,-92.0613,10.0,27.34,11111222 
WAVCIS,ioos:station:WAVCIS:CSI03:1,2009-10-07T22:00:00Z,29.4412,-92.0613,10.0,27.33,11111222 
WAVCIS,ioos:station:WAVCIS:CSI03:1,2009-10-07T23:00:00Z,29.4412,-92.0613,10.0,27.37,11111222 
WAVCIS,ioos:station:WAVCIS:CSI03:1,2009-10-08T00:00:00Z,29.4412,-92.0613,10.0,27.51,11111222 
WAVCIS,ioos:station:WAVCIS:CSI03:1,2009-10-08T01:00:00Z,29.4412,-92.0613,10.0,27.33,11111222 
WAVCIS,ioos:station:WAVCIS:CSI03:1,2009-10-08T02:00:00Z,29.4412,-92.0613,10.0,27.35,11111222 
WAVCIS,ioos:station:WAVCIS:CSI03:1,2009-10-08T03:00:00Z,29.4412,-92.0613,10.0,27.38,11111222 
WAVCIS,ioos:station:WAVCIS:CSI03:1,2009-10-08T04:00:00Z,29.4412,-92.0613,10.0,27.34,11111222 
WAVCIS,ioos:station:WAVCIS:CSI03:1,2009-10-08T05:00:00Z,29.4412,-92.0613,10.0,27.34,11111222 
WAVCIS,ioos:station:WAVCIS:CSI03:1,2009-10-08T06:00:00Z,29.4412,-92.0613,10.0,27.39,11111222 
WAVCIS,ioos:station:WAVCIS:CSI03:1,2009-10-08T07:00:00Z,29.4412,-92.0613,10.0,27.75,11111222 
WAVCIS,ioos:station:WAVCIS:CSI03:1,2009-10-08T08:00:00Z,29.4412,-92.0613,10.0,28.28,11111222 
WAVCIS,ioos:station:WAVCIS:CSI03:1,2009-10-08T09:00:00Z,29.4412,-92.0613,10.0,28.33,11111222 
WAVCIS,ioos:station:WAVCIS:CSI03:1,2009-10-08T10:00:00Z,29.4412,-92.0613,10.0,28.32,11111222 
WAVCIS,ioos:station:WAVCIS:CSI03:1,2009-10-08T11:00:00Z,29.4412,-92.0613,10.0,28.37,11111222 
WAVCIS,ioos:station:WAVCIS:CSI03:1,2009-10-08T12:00:00Z,29.4412,-92.0613,10.0,28.29,11111222 
WAVCIS,ioos:station:WAVCIS:CSI03:1,2009-10-08T13:00:00Z,29.4412,-92.0613,10.0,28.24,11111222 
WAVCIS,ioos:station:WAVCIS:CSI03:1,2009-10-08T14:00:00Z,29.4412,-92.0613,10.0,28.28,11111222 
WAVCIS,ioos:station:WAVCIS:CSI03:1,2009-10-08T15:00:00Z,29.4412,-92.0613,10.0,28.35,11111222 
WAVCIS,ioos:station:WAVCIS:CSI03:1,2009-10-08T16:00:00Z,29.4412,-92.0613,10.0,28.49,11111222 
WAVCIS,ioos:station:WAVCIS:CSI03:1,2009-10-08T17:00:00Z,29.4412,-92.0613,10.0,28.54,11111222 
WAVCIS,ioos:station:WAVCIS:CSI03:1,2009-10-08T18:00:00Z,29.4412,-92.0613,10.0,28.84,11111222 
WAVCIS,ioos:station:WAVCIS:CSI03:1,2009-10-08T19:00:00Z,29.4412,-92.0613,10.0,28.99,11111222 
WAVCIS,ioos:station:WAVCIS:CSI03:1,2009-10-08T20:00:00Z,29.4412,-92.0613,10.0,29.21,11111222 
WAVCIS,ioos:station:WAVCIS:CSI03:1,2009-10-08T21:00:00Z,29.4412,-92.0613,10.0,29.36,11111222 
WAVCIS,ioos:station:WAVCIS:CSI03:1,2009-10-08T22:00:00Z,29.4412,-92.0613,10.0,29.24,11111222 
WAVCIS,ioos:station:WAVCIS:CSI03:1,2009-10-08T23:00:00Z,29.4412,-92.0613,10.0,29.19,11111222 
WAVCIS,ioos:station:WAVCIS:CSI03:1,2009-10-09T00:00:00Z,29.4412,-92.0613,10.0,29.1,11111222 
WAVCIS,ioos:station:WAVCIS:CSI03:1,2009-10-09T01:00:00Z,29.4412,-92.0613,10.0,29.04,11111222 
WAVCIS,ioos:station:WAVCIS:CSI03:1,2009-10-09T02:00:00Z,29.4412,-92.0613,10.0,28.97,11111222 
WAVCIS,ioos:station:WAVCIS:CSI03:1,2009-10-09T03:00:00Z,29.4412,-92.0613,10.0,28.88,11111222 
WAVCIS,ioos:station:WAVCIS:CSI03:1,2009-10-09T04:00:00Z,29.4412,-92.0613,10.0,28.81,11111222 
WAVCIS,ioos:station:WAVCIS:CSI03:1,2009-10-09T05:00:00Z,29.4412,-92.0613,10.0,28.81,11111222 
WAVCIS,ioos:station:WAVCIS:CSI03:1,2009-10-09T06:00:00Z,29.4412,-92.0613,10.0,28.77,11111222 
WAVCIS,ioos:station:WAVCIS:CSI03:1,2009-10-09T07:00:00Z,29.4412,-92.0613,10.0,28.76,11111222 
WAVCIS,ioos:station:WAVCIS:CSI03:1,2009-10-09T08:00:00Z,29.4412,-92.0613,10.0,28.83,11111222 
WAVCIS,ioos:station:WAVCIS:CSI03:1,2009-10-09T09:00:00Z,29.4412,-92.0613,10.0,28.8,11111222 
WAVCIS,ioos:station:WAVCIS:CSI03:1,2009-10-09T10:00:00Z,29.4412,-92.0613,10.0,28.72,11111222 
WAVCIS,ioos:station:WAVCIS:CSI03:1,2009-10-09T11:00:00Z,29.4412,-92.0613,10.0,28.6,11111222 
WAVCIS,ioos:station:WAVCIS:CSI03:1,2009-10-09T12:00:00Z,29.4412,-92.0613,10.0,28.39,11111222 
WAVCIS,ioos:station:WAVCIS:CSI03:1,2009-10-09T13:00:00Z,29.4412,-92.0613,10.0,28.11,11111222 
WAVCIS,ioos:station:WAVCIS:CSI03:1,2009-10-09T14:00:00Z,29.4412,-92.0613,10.0,28.17,11111222 
WAVCIS,ioos:station:WAVCIS:CSI03:1,2009-10-09T15:00:00Z,29.4412,-92.0613,10.0,28.22,11111222 
WAVCIS,ioos:station:WAVCIS:CSI03:1,2009-10-09T16:00:00Z,29.4412,-92.0613,10.0,28.26,11111222 
WAVCIS,ioos:station:WAVCIS:CSI03:1,2009-10-09T17:00:00Z,29.4412,-92.0613,10.0,28.44,11111222 
WAVCIS,ioos:station:WAVCIS:CSI03:1,2009-10-09T18:00:00Z,29.4412,-92.0613,10.0,28.61,11111222 
WAVCIS,ioos:station:WAVCIS:CSI03:1,2009-10-09T19:00:00Z,29.4412,-92.0613,10.0,28.78,11111222 
WAVCIS,ioos:station:WAVCIS:CSI03:1,2009-10-09T20:00:00Z,29.4412,-92.0613,10.0,28.75,11111222 
WAVCIS,ioos:station:WAVCIS:CSI03:1,2009-10-09T21:00:00Z,29.4412,-92.0613,10.0,28.8,11111222 
WAVCIS,ioos:station:WAVCIS:CSI03:1,2009-10-09T22:00:00Z,29.4412,-92.0613,10.0,28.81,11111222 
WAVCIS,ioos:station:WAVCIS:CSI03:1,2009-10-09T23:00:00Z,29.4412,-92.0613,10.0,28.65,11111222 
WAVCIS,ioos:station:WAVCIS:CSI03:1,2009-10-10T00:00:00Z,29.4412,-92.0613,10.0,28.48,11111222 
WAVCIS,ioos:station:WAVCIS:CSI03:1,2009-10-10T01:00:00Z,29.4412,-92.0613,10.0,28.32,11111222 
WAVCIS,ioos:station:WAVCIS:CSI03:1,2009-10-10T02:00:00Z,29.4412,-92.0613,10.0,28.13,11111222 
WAVCIS,ioos:station:WAVCIS:CSI03:1,2009-10-10T03:00:00Z,29.4412,-92.0613,10.0,28.33,11111222 
WAVCIS,ioos:station:WAVCIS:CSI03:1,2009-10-10T04:00:00Z,29.4412,-92.0613,10.0,28.06,11111222 
WAVCIS,ioos:station:WAVCIS:CSI03:1,2009-10-10T05:00:00Z,29.4412,-92.0613,10.0,28.18,11111222 
WAVCIS,ioos:station:WAVCIS:CSI03:1,2009-10-10T06:00:00Z,29.4412,-92.0613,10.0,28.06,11111222 
WAVCIS,ioos:station:WAVCIS:CSI03:1,2009-10-10T07:00:00Z,29.4412,-92.0613,10.0,27.67,11111222 
WAVCIS,ioos:station:WAVCIS:CSI03:1,2009-10-10T08:00:00Z,29.4412,-92.0613,10.0,27.73,11111222 
WAVCIS,ioos:station:WAVCIS:CSI03:1,2009-10-10T09:00:00Z,29.4412,-92.0613,10.0,27.91,11111222 
WAVCIS,ioos:station:WAVCIS:CSI03:1,2009-10-10T10:00:00Z,29.4412,-92.0613,10.0,27.63,11111222 
WAVCIS,ioos:station:WAVCIS:CSI03:1,2009-10-10T11:00:00Z,29.4412,-92.0613,10.0,27.52,11111222 
WAVCIS,ioos:station:WAVCIS:CSI03:1,2009-10-10T12:00:00Z,29.4412,-92.0613,10.0,28.03,11111222 
WAVCIS,ioos:station:WAVCIS:CSI03:1,2009-10-10T13:00:00Z,29.4412,-92.0613,10.0,27.7,11111222 
WAVCIS,ioos:station:WAVCIS:CSI03:1,2009-10-11T16:00:00Z,29.4412,-92.0613,10.0,25.9,11111222 
WAVCIS,ioos:station:WAVCIS:CSI03:1,2009-10-11T17:00:00Z,29.4412,-92.0613,10.0,25.88,11111222 
WAVCIS,ioos:station:WAVCIS:CSI03:1,2009-10-11T18:00:00Z,29.4412,-92.0613,10.0,25.8,11111222 
WAVCIS,ioos:station:WAVCIS:CSI03:1,2009-10-11T19:00:00Z,29.4412,-92.0613,10.0,25.63,11111222 
WAVCIS,ioos:station:WAVCIS:CSI03:1,2009-10-11T20:00:00Z,29.4412,-92.0613,10.0,25.72,11111222 
WAVCIS,ioos:station:WAVCIS:CSI03:1,2009-10-11T21:00:00Z,29.4412,-92.0613,10.0,26.02,11111222 
WAVCIS,ioos:station:WAVCIS:CSI03:1,2009-10-11T22:00:00Z,29.4412,-92.0613,10.0,26.2,11111222 
WAVCIS,ioos:station:WAVCIS:CSI03:1,2009-10-11T23:00:00Z,29.4412,-92.0613,10.0,26.18,11111222 
WAVCIS,ioos:station:WAVCIS:CSI03:1,2009-10-12T00:00:00Z,29.4412,-92.0613,10.0,26.17,11111222 
WAVCIS,ioos:station:WAVCIS:CSI03:1,2009-10-12T01:00:00Z,29.4412,-92.0613,10.0,26.09,11111222 
WAVCIS,ioos:station:WAVCIS:CSI03:1,2009-10-12T02:00:00Z,29.4412,-92.0613,10.0,26.11,11111222 
WAVCIS,ioos:station:WAVCIS:CSI03:1,2009-10-12T03:00:00Z,29.4412,-92.0613,10.0,26.16,11111222 
WAVCIS,ioos:station:WAVCIS:CSI03:1,2009-10-12T04:00:00Z,29.4412,-92.0613,10.0,26.15,11111222 
WAVCIS,ioos:station:WAVCIS:CSI03:1,2009-10-12T05:00:00Z,29.4412,-92.0613,10.0,26.15,11111222 
WAVCIS,ioos:station:WAVCIS:CSI03:1,2009-10-12T06:00:00Z,29.4412,-92.0613,10.0,26.17,11111222 
WAVCIS,ioos:station:WAVCIS:CSI03:1,2009-10-12T07:00:00Z,29.4412,-92.0613,10.0,26.16,11111222 
WAVCIS,ioos:station:WAVCIS:CSI03:1,2009-10-12T08:00:00Z,29.4412,-92.0613,10.0,26.15,11111222 
WAVCIS,ioos:station:WAVCIS:CSI03:1,2009-10-12T09:00:00Z,29.4412,-92.0613,10.0,26.14,11111222 
WAVCIS,ioos:station:WAVCIS:CSI03:1,2009-10-12T10:00:00Z,29.4412,-92.0613,10.0,26.14,11111222 
WAVCIS,ioos:station:WAVCIS:CSI03:1,2009-10-12T11:00:00Z,29.4412,-92.0613,10.0,26.09,11111222 
WAVCIS,ioos:station:WAVCIS:CSI03:1,2009-10-12T12:00:00Z,29.4412,-92.0613,10.0,25.97,11111222 
WAVCIS,ioos:station:WAVCIS:CSI03:1,2009-10-12T13:00:00Z,29.4412,-92.0613,10.0,25.98,11111222 
WAVCIS,ioos:station:WAVCIS:CSI03:1,2009-10-12T14:00:00Z,29.4412,-92.0613,10.0,25.95,11111222 
WAVCIS,ioos:station:WAVCIS:CSI03:1,2009-10-12T15:00:00Z,29.4412,-92.0613,10.0,25.98,11111222 